Regional Weather Roundup
Issued by NWS

Home | Current Version | Previous Version | Text Only | Print | Product List | Glossary On
Versions: 1 2 3 4 5 6 7 8 9 10 11 12 13 14 15 16 17 18 19 20 21 22 23 24 25 26 27 28 29 30 31 32 33 34 35 36 37 38 39 40 41 42 43 44 45 46 47 48 49 50
000
ASUS45 KABQ 180601
RWRNM
NEW MEXICO REGIONAL WEATHER ROUNDUP
NATIONAL WEATHER SERVICE ALBUQUERQUE NM
1100 PM MST TUE JAN 17 2017

NOTE: "FAIR" MEANS FEW OR NO CLOUDS BELOW 12,000 FEET AGL WITH NO
       SIGNIFICANT WEATHER OR OBSTRUCTIONS TO VISION.

      THIS PRODUCT IS RELEASED AS TWO VERSIONS.  ONE VERSION NEAR
      THE TOP OF THE HOUR CONTAINING PRELIMINARY DATA FROM ALBUQUERQUE
      AND OTHER STATIONS.  A FINAL VERSION WITH ADDITIONAL DATA IS
      ISSUED ABOUT 10 MINUTES AFTER THE HOUR.

NMZ501-503-504-510>518-180700-
NORTHWEST PLATEAU/NORTHCENTRAL MOUNTAINS

CITY           SKY/WX    TMP DP  RH WIND       PRES   REMARKS
FARMINGTON     FAIR      32  30  92 W8        30.13S WCI  25
6HR MIN TEMP:  32; 6HR MAX TEMP:  43;

LOS ALAMOS     FAIR      33  24  72 SW6       30.14S WCI  27
SANTA FE       MOCLDY    32  27  81 NW5       30.12R WCI  27
6HR MIN TEMP:  30; 6HR MAX TEMP:  43;

TAOS           FAIR      27  18  69 N7        30.12F WCI  19
ANGEL FIRE     FOG        6   4  91 CALM      30.14S VSB 1/4

$$
NMZ402-403-502-505>509-180700-
WESTCENTRAL MOUNTAINS/SOUTHWEST MOUNTAINS

CITY           SKY/WX    TMP DP  RH WIND       PRES   REMARKS
GALLUP         FAIR      29  28  96 CALM      30.17R
6HR MIN TEMP:  29; 6HR MAX TEMP:  39;

GRANTS         FAIR      28  28  99 CALM      30.18R
SILVER CITY    MOCLDY    35  34  97 N7        30.18R WCI  29

$$
NMZ407-409-411-412-180700-
SOUTHERN DESERTS

CITY           SKY/WX    TMP DP  RH WIND       PRES   REMARKS
DEMING         CLOUDY    39  38  96 NW6       30.17S WCI  35
6HR MIN TEMP:  39; 6HR MAX TEMP:  47;

LAS CRUCES     MOCLDY    40  38  94 S5        30.18R
HOLLOMAN AFB   CLOUDY    42  42 100 S3        30.20R
ALAMOGORDO     CLOUDY    41  41 100 SW5       30.18R
T OR C         FAIR      41  37  86 SW5       30.14S
6HR MIN TEMP:  40; 6HR MAX TEMP:  50;


$$
NMZ519>523-180700-
CENTRAL VALLEYS/CENTRAL HIGHLANDS

CITY           SKY/WX    TMP DP  RH WIND       PRES   REMARKS
ALBUQUERQUE    FAIR      37  33  85 S6        30.14R WCI  32
6HR MIN TEMP:  37; 6HR MAX TEMP:  47;

DOUBLE EAGLE   FAIR      34  31  91 W7        30.14S WCI  28
MORIARTY ARPT  FAIR      29  26  89 SE3       30.14S
6HR MIN TEMP:  26; 6HR MAX TEMP:  41;

CLINES CORNERS FAIR      27  24  89 W12       30.13S WCI  17
6HR MIN TEMP:  26; 6HR MAX TEMP:  36;

BELEN          FAIR      35  33  92 CALM      30.14S
6HR MIN TEMP:  35; 6HR MAX TEMP:  47;

SOCORRO        CLOUDY    40  36  84 S6        30.15R
6HR MIN TEMP:  38; 6HR MAX TEMP:  47;


$$
NMZ524>526-539-540-180700-
SOUTHCENTRAL MOUNTAINS

CITY           SKY/WX    TMP DP  RH WIND       PRES   REMARKS
RUIDOSO        FOG       30  30 100 N3        30.17S VSB 1/4

$$
NMZ527>531-180700-
NORTHEAST HIGHLANDS/NORTHEAST PLAINS

CITY           SKY/WX    TMP DP  RH WIND       PRES   REMARKS
LAS VEGAS      FAIR      27  26  96 SW5       30.10S WCI  22
6HR MIN TEMP:  24; 6HR MAX TEMP:  38;

RATON          MOCLDY    22  19  89 NE7       30.11R WCI  13
6HR MIN TEMP:  20; 6HR MAX TEMP:  33;

CLAYTON        FAIR      34  33  96 SW7       30.09S WCI  28
6HR MIN TEMP:  32; 6HR MAX TEMP:  42;


$$
NMZ532>537-180700-
EASTCENTRAL PLAINS

CITY           SKY/WX    TMP DP  RH WIND       PRES   REMARKS
TUCUMCARI      CLOUDY    43  39  86 SW9       30.12S
6HR MIN TEMP:  43; 6HR MAX TEMP:  48;

CANNON AFB     MOCLDY    42  42 100 SW7       30.15S
6HR MIN TEMP:  42; 6HR MAX TEMP:  48; 6HR PCP:  0.16;

CLOVIS AIRPORT CLOUDY    43  39  87 SE6       30.15F

$$
NMZ028-029-538-180700-
SOUTHEAST PLAINS

CITY           SKY/WX    TMP DP  RH WIND       PRES   REMARKS
ROSWELL        LGT RAIN  43  40  89 SW3       30.17S
6HR MIN TEMP:  42; 6HR MAX TEMP:  46; 6HR PCP:  0.27;

ARTESIA        MOCLDY    43  43 100 CALM      30.17F
CARLSBAD       CLOUDY    44  43  96 CALM      30.16F
6HR MIN TEMP:  43; 6HR MAX TEMP:  46; 6HR PCP: TRACE;



$$



USA.gov is the U.S. government's official web portal to all federal, state and local government web resources and services.